Regional Weather Roundup
Issued by NWS Green Bay, WI

Home | Current Version | Previous Version | Graphics & Text | Print | Product List | Glossary Off
Versions: 1 2 3 4 5 6 7 8 9 10 11 12 13 14 15 16 17 18 19 20 21 22 23 24 25 26 27 28 29 30 31 32 33 34 35 36 37 38 39 40 41 42 43 44 45 46 47 48 49 50

000
ASUS43 KGRB 120011
RWRGRB

NORTH-CENTRAL AND NORTHEAST WISCONSIN REGIONAL WEATHER ROUNDUP
NATIONAL WEATHER SERVICE GREEN BAY WI
600 PM CST MON DEC 11 2017

WIZ005-009-010>012-018-019-120100-
NORTH CENTRAL WISCONSIN

CITY           SKY/WX    TMP DP  RH WIND       PRES   REMARKS
IRONWOOD       FLURRIES  19  11  70 NW13G24   29.94R WCI   6
MANITOWISH WTR LGT SNOW  18  15  86 NW15G22   29.87R WCI   4
ARBOR VITAE    LGT SNOW  22  17  81 N17G24    29.84R WCI   7
EAGLE RIVER    LGT SNOW  20  14  77 N14G28    29.82R WCI   6
LAND O LAKES   LGT SNOW  19  14  79 N17G26    29.83R WCI   4
RHINELANDER    FLURRIES  20  14  77 NW17G26   29.83R WCI   5
PHILLIPS       FLURRIES  19  15  82 N13G20    29.90R WCI   7
ANTIGO         FLURRIES  24  19  80 NW21G35   29.79R WCI   9
TOMAHAWK       LGT SNOW  21  16  81 NW14G22   29.87R WCI   8
MERRILL        CLOUDY    24  16  72 N21G35    29.85R WCI   9
$$

WIZ013-073-120100-
NORTHEAST WISCONSIN

CITY           SKY/WX    TMP DP  RH WIND       PRES   REMARKS
IRON MOUNTAIN  MIX PCPN  23  16  74 NW16G25   29.77R WCI  10
MARINETTE      FLURRIES  25  21  86 VRB6      29.78R
OCONTO         CLOUDY    26  23  87 NW6       29.78R
$$

WIZ017-030-035>037-045-120100-
CENTRAL WISCONSIN

CITY           SKY/WX    TMP DP  RH WIND       PRES   REMARKS
MEDFORD        FLURRIES  23  16  73 NW17G26   29.86R WCI  10
WAUSAU         CLOUDY    26  17  68 NW16G28   29.82R
MOSINEE        CLOUDY    27  23  86 NW15G22   29.84R
MARSHFIELD     CLOUDY    28  21  75 N18       29.84R
WISC RAPIDS    CLOUDY    29  23  78 N14       29.86R
STEVENS POINT  CLOUDY    27  22  84 NW9G17    29.83R
WAUPACA        CLOUDY    31  24  74 NW13G22   29.82R
SHAWANO        CLOUDY    29  25  83 NW6       29.80R
CLINTONVILLE   NOT AVBL
WAUTOMA        CLOUDY    29  23  78 NW15G21   29.83R
$$

WIZ038-039-048-051-120100-
FOX VALLEY

CITY           SKY/WX    TMP DP  RH WIND       PRES   REMARKS
NWS GREEN BAY  CLOUDY    27  24  89 NW9       29.79R
APPLETON       CLOUDY    27  21  80 NW12G18   29.77R
OSHKOSH        CLOUDY    29  23  78 NW14G21   29.79R
FOND DU LAC    CLOUDY    30  23  75 N13G22    29.79R
$$

WIZ022-050-052-120100-
EAST CENTRAL WISCONSIN

CITY           SKY/WX    TMP DP  RH WIND       PRES   REMARKS
EPHRAIM        CLOUDY    26  22  87 NW10      29.74R
WASHINGTON ISL CLOUDY    27  22  82 NW14      29.74R
STURGEON BAY   CLOUDY    26  23  88 NW13      29.77R
MANITOWOC      CLOUDY    28  23  81 NW13      29.78R
SHEBOYGAN      CLOUDY    29  24  82 NW13G22   29.76R
$$

LMZ563-521-522-541>543-120100-
LAKESHORE

STATION/POSITION TIME  TEMP    WIND        PRES    VSBY  WAVE
                       AIR SEA DIR/SP/G                  HT/PER
                 (UTC) (F)     (DEG/KT/KT) (MB)    (MI)  (FT/S)
SHEBOYGAN LKSHOR 0000   30     330/ 15/ 19 1008.9R
KEWAUNEE LKSHORE 2348   27     310/  9/ 13 1007.1R
NORTHPORT PIER   0002   28     300/ 18/ 25 1007.5
MENOMINEE LKSHOR 2348   26     270/  7/ 13 1007.9R
$$




USA.gov is the U.S. government's official web portal to all federal, state and local government web resources and services.